Hourly Data Report for February 10, 2021

OTTAWA INTL A
ONTARIO
Current Station Operator: NAVCAN

45°19'00.000" N
75°40'00.000" W
114.90 m
6106001
71628
YOW

Download Data

Hourly Data (February 2021)
Hourly Data Report for February 10, 2021
TIME
LST
Temp Definition
°C
Dew Point Definition
°C
Rel Hum Definition
%
Precip. Amount Definition
mm

Wind Dir Definition
10's deg

Wind Spd Definition
km/h
Visibility Definition
km
Stn Press Definition
kPa
Hmdx Definition


Wind Chill Definition


Weather Definition


00:00 -11.1 -12.2 91   27 4 24.1 100.96   -14 LegendNANA
01:00 -12.4 -13.9 89   27 11 16.1 100.99   -18 Mostly Cloudy
02:00 -10.2 -12.1 86   29 20 24.1 101.05   -18 LegendNANA
03:00 -12.4 -16.5 72   32 17 24.1 101.05   -20 LegendNANA
04:00 -12.2 -15.9 74   31 9 24.1 101.04   -17 Mainly Clear
05:00 -14.0 -17.0 78   25 13 24.1 101.11   -21 LegendNANA
06:00 -14.7 -17.4 80   26 9 24.1 101.15   -20 LegendNANA
07:00 -14.6 -17.7 77   26 9 24.1 101.20   -20 Clear
08:00 -15.3 -18.2 78   26 9 24.1 101.27   -21 LegendNANA
09:00 -13.5 -17.2 74   26 9 24.1 101.30   -19 LegendNANA
10:00 -11.5 -17.3 63   27 21 24.1 101.32   -20 Mostly Cloudy
11:00 -10.6 -17.4 58   28 15 24.1 101.34   -17 LegendNANA
12:00 -9.3 -17.9 50   25 14 24.1 101.29   -16 LegendNANA
13:00 -7.8 -18.2 44   29 19 24.1 101.20   -15 Clear
14:00 -7.5 -17.4 45   30 18 24.1 101.18   -14 LegendNANA
15:00 -7.5 -17.0 47   31 20 24.1 101.17   -15 LegendNANA
16:00 -8.2 -17.1 49   30 14 24.1 101.16   -14 Clear
17:00 -9.1 -18.7 46   30 10 24.1 101.15   -14 LegendNANA
18:00 -9.3 -18.3 49   36 3 24.1 101.15   -11 LegendNANA
19:00 -11.1 -18.4 55   18 4 24.1 101.16   -14 Mostly Cloudy
20:00 -10.1 -18.1 52   19 5 24.1 101.14   -13 LegendNANA
21:00 -10.8 -17.2 60   36 2 24.1 101.14   -12 LegendNANA
22:00 -11.0 -17.7 58   20 4 24.1 101.12   -13 Mostly Cloudy
23:00 -11.5 -17.1 64   36 2 24.1 101.11   -13 LegendNANA

Notes on Data Quality.

Legend

  • E = Estimated
  • M = Missing
  • NA = Not Available*
  • [empty] = Indicates an unobserved value
Date modified: